Regional Weather Roundup
Issued by NWS Binghamton, NY

Home | Current Version | Previous Version | Text Only | Print | Product List | Glossary On
Versions: 1 2 3 4 5 6 7 8 9 10 11 12 13 14 15 16 17 18 19 20 21 22 23 24 25 26 27
000
ASUS41 KBGM 241910
RWRBGM

REGIONAL WEATHER ROUNDUP
NATIONAL WEATHER SERVICE BINGHAMTON NY
300 PM EDT WED MAY 24 2017

Note: "fair" indicates few or no clouds below 12,000 feet with no
significant weather and/or obstructions to visibility.

* = Station(s) that does not report precipitation, such as rain,
snow, etc, also no thunder or fog.

NYZ009-015>018-022>025-036-037-044>046-055>057-062-242000
...Central New York...

CITY           SKY/WX    TMP DP  RH WIND       PRES   REMARKS
Binghamton     CLOUDY    68  46  45 SE14G21   29.72F
Cortland       FAIR      72  46  40 E12       29.71F
Dansville      MOSUNNY   74  43  32 SE13G21   29.65S
Elmira         MOSUNNY   73  39  29 SE14      29.68S
Ithaca         MOSUNNY   73  48  41 SE15G21   29.71S
Hamilton       MOSUNNY   75  43  31 S7G17     29.71F
Hornell        MOSUNNY   73  43  33 SE9       29.70S
Monticello     PTSUNNY   70  48  46 SE15G21   29.78R
Norwich        MOSUNNY   73  45  35 SE8G17    29.71F
Penn Yan       CLOUDY    74  44  34 SE12      29.69S
Rome           MOSUNNY   75  52  44 E9        29.71F
Sidney         MOSUNNY   73  48  40 SE5       29.72R
Syracuse       CLOUDY    75  49  39 E6        29.67F
$$

PAZ038>040-043-044-047-048-072-242000
...Northeast Pennsylvania...

CITY           SKY/WX    TMP DP  RH WIND       PRES   REMARKS
Hazleton       CLOUDY    68  46  45 E7G18     29.79R
Scranton       PTSUNNY   72  47  40 SE8       29.71S
$$
&&
KEY
WCI = Wind Chill Index
VSB = Visibility
HX  = Heat Index
$$




USA.gov is the U.S. government's official web portal to all federal, state and local government web resources and services.